GFSFLT2_500_rhum_096.txt.gz
RH
78 97 90 97 96 87 75 52 52 48 42 43 90 97 96 94 75 67 64 68 68 71 70 86 89 90 90 86 81 78 84 84
79 91 96 90 95 96 92 96 82 50 33 52 84 97 92 97 82 64 62 66 66 76 81 73 90 98 93 91 83 83 86 89
90 88 94 96 93 90 89 96 97 58 31 74 82 97 93 90 83 72 69 66 55 63 75 72 68 70 74 84 87 84 91 97
85 93 83 93 95 81 88 92 81 54 49 50 79 93 98 96 81 85 76 66 61 72 66 69 72 76 83 90 91 97 90 94
72 80 78 82 72 74 95 99 96 84 51 55 59 90 92 87 89 79 78 75 62 57 69 63 70 81 98 95 94 88 81 91
32 81 78 74 86 93 93 100 90 86 79 55 56 82 95 99 97 83 80 73 62 74 89 91 92 97 96 89 90 84 86 89
33 75 96 95 82 95 98 96 96 97 93 88 71 76 96 94 99 90 82 74 74 92 96 98 99 95 92 91 87 89 88 87
15 54 61 96 100 76 85 95 97 96 96 99 88 69 78 95 97 86 83 80 72 81 88 93 97 97 96 88 94 96 94 95
15 34 69 91 95 97 78 89 96 88 97 98 97 97 97 96 97 84 90 82 68 79 99 91 95 94 87 96 94 94 98 88
19 26 52 75 92 95 89 80 77 84 96 97 98 98 96 97 96 83 91 82 78 95 96 99 86 92 86 93 96 94 96 86
19 21 39 46 97 96 91 88 70 96 92 96 95 97 96 98 97 94 94 100 94 96 98 92 85 88 96 100 93 94 96 94
16 29 27 41 97 97 96 96 85 81 92 97 97 97 97 97 92 94 96 96 96 98 99 89 89 95 96 98 97 95 76 86
17 20 30 41 99 96 96 100 88 87 97 96 96 96 96 96 96 96 97 96 96 98 91 94 95 99 98 98 98 91 93 88
19 24 27 47 91 95 97 97 97 97 96 96 95 96 96 96 97 97 98 97 96 99 94 93 93 97 98 94 97 94 81 77
30 42 42 56 86 93 96 97 97 96 96 96 96 97 97 97 97 93 93 92 98 98 95 95 94 93 96 97 95 89 75 59
63 50 52 50 84 96 96 97 97 97 97 96 96 95 97 96 99 94 95 94 97 97 96 94 94 97 91 79 77 71 68 63
41 56 65 68 56 76 84 77 95 96 97 94 90 93 93 98 96 96 97 96 97 96 95 79 78 68 63 69 72 79 92 91
31 31 26 36 39 62 63 67 70 90 96 96 96 96 95 94 99 99 96 97 96 74 58 56 55 57 58 64 81 90 97 88
27 29 34 35 27 22 47 64 70 75 78 79 76 83 97 96 92 80 76 76 74 69 72 77 84 81 74 72 74 87 100 85
27 30 28 29 36 32 30 28 23 30 32 44 50 52 54 50 39 47 46 52 48 42 42 45 52 71 89 91 89 82 58 65

GFSFLT2_500_rhum_102.txt.gz
RH
36 34 28 27 32 42 75 90 98 95 98 68 97 89 78 95 93 97 97 95 94 93 91 93 85 74 72 68 68 66 61 70
27 24 23 25 50 82 88 79 79 96 99 73 64 97 84 72 99 98 95 94 88 86 79 70 69 66 65 66 68 74 71 63
21 19 18 30 32 83 95 90 80 94 98 95 92 98 68 90 97 96 90 87 83 79 75 68 68 74 77 78 82 76 68 65
22 18 19 19 62 96 81 90 92 96 92 82 86 82 52 57 80 94 91 70 77 73 65 69 88 82 80 73 70 63 63 66
21 17 21 20 54 92 100 96 97 96 92 83 96 59 43 38 50 92 90 73 72 66 63 68 74 74 77 69 66 62 64 78
17 18 24 26 68 95 97 94 95 90 88 97 62 46 38 53 80 94 92 86 81 82 66 67 71 82 73 76 71 67 78 72
15 24 26 30 74 95 98 98 96 96 95 96 47 40 49 40 89 94 86 83 90 74 63 66 74 82 79 83 78 72 69 71
15 25 30 24 68 95 96 95 86 96 96 93 85 49 66 60 89 95 93 93 80 69 65 70 75 74 81 80 74 65 65 74
15 24 28 20 26 82 95 95 84 94 97 96 83 70 65 63 83 99 97 88 78 64 73 73 73 74 76 89 84 76 67 77
21 19 24 22 15 32 88 95 93 96 96 97 97 96 92 70 70 93 90 96 85 70 83 74 75 76 70 79 84 75 76 79
32 32 25 23 13 14 26 36 68 82 90 96 98 91 99 96 73 85 92 87 81 92 92 90 72 64 71 90 88 78 81 80
42 28 16 17 15 13 25 43 60 81 76 83 95 98 98 85 87 76 96 100 95 89 97 95 88 77 90 91 86 80 85 80
48 22 15 12 16 20 27 27 37 69 91 76 88 95 97 99 91 82 98 82 91 89 95 96 94 89 95 93 87 83 88 87
37 44 14 14 24 24 35 37 43 71 80 67 83 98 96 98 97 99 99 100 99 99 98 96 94 95 96 89 85 88 91 82
31 46 45 20 28 45 50 36 47 76 79 68 72 89 87 99 98 99 99 98 98 98 91 96 97 96 95 90 93 97 97 85
20 34 52 58 37 33 51 45 88 81 75 85 77 82 89 95 92 98 100 96 97 97 96 96 97 96 96 93 95 99 92 76
15 30 33 35 53 59 44 61 88 97 97 96 100 99 90 94 94 93 96 97 95 96 96 96 96 97 95 92 91 81 73 66
19 18 25 36 37 28 56 50 60 89 97 96 97 99 98 96 97 97 96 96 96 97 97 96 96 96 90 71 68 64 57 56
25 21 20 23 37 36 25 52 59 67 73 92 96 96 96 96 96 97 96 97 97 96 97 95 94 70 62 57 60 67 72 66
25 22 22 23 24 31 33 28 46 73 78 76 88 97 96 96 97 95 96 95 98 96 94 83 67 62 60 53 55 55 60 54

GFSFLT2_500_rhum_105.txt.gz
RH
21 27 27 25 23 24 29 38 45 82 95 84 78 72 92 95 97 92 89 97 86 60 82 97 78 69 77 87 90 73 67 69
22 23 22 20 22 22 30 42 62 76 92 94 91 55 59 96 95 96 89 95 99 96 86 90 92 86 68 79 82 72 65 71
21 22 19 22 18 15 20 47 72 94 94 94 96 70 65 96 78 83 98 98 98 97 96 94 90 80 75 66 70 70 81 75
24 17 19 20 17 16 39 87 95 89 100 96 96 84 71 97 84 70 97 99 97 94 84 80 80 70 58 77 84 81 80 69
15 13 14 16 17 23 65 93 81 81 94 87 96 82 82 100 88 98 100 100 96 88 74 73 62 58 73 81 80 74 70 67
14 11 12 16 18 29 87 96 96 58 83 90 94 94 82 95 54 51 81 96 94 85 73 73 61 60 64 74 84 81 74 69
13 13 13 16 21 38 95 94 92 94 61 85 95 96 92 90 47 48 74 96 89 78 74 93 66 60 62 74 82 72 74 73
18 21 17 16 25 40 94 96 96 97 92 83 89 96 94 66 40 68 77 96 85 80 81 93 64 66 61 70 70 72 70 73
20 25 23 14 23 51 77 96 96 92 96 90 97 95 64 47 52 73 91 97 92 88 81 83 68 70 64 73 69 70 62 70
18 36 34 20 24 56 68 94 96 96 96 96 96 94 55 49 56 85 98 94 97 93 88 76 82 72 69 58 61 69 67 72
16 37 29 25 26 21 53 50 84 93 95 96 97 96 99 88 66 80 98 96 97 100 92 92 84 81 73 62 66 69 73 85
15 34 24 19 24 21 26 38 43 52 80 96 97 97 97 87 82 68 84 89 92 97 100 93 94 92 82 85 77 85 82 84
14 25 41 17 18 21 24 29 31 37 39 60 92 95 96 98 96 95 89 77 88 100 98 88 92 94 95 99 93 88 90 87
13 18 40 28 13 16 21 23 31 33 33 38 51 68 87 91 99 98 96 91 96 93 85 95 92 95 86 92 95 96 95 93
12 16 33 52 23 14 21 30 42 54 55 58 54 60 72 79 97 97 95 93 97 97 92 93 87 78 90 97 95 97 91 94
14 14 27 39 51 53 40 34 67 87 83 86 75 71 77 87 94 96 97 97 96 99 97 96 90 92 97 96 97 96 96 89
16 17 17 28 36 42 41 56 55 64 83 91 100 96 82 88 94 96 97 97 97 98 98 95 96 96 97 95 97 96 85 84
18 23 18 20 22 39 31 44 63 58 79 98 97 96 95 92 97 97 98 96 97 98 97 96 96 96 96 96 96 84 73 66
18 22 21 17 21 27 38 28 61 70 64 76 97 98 97 97 96 97 98 97 97 97 96 96 97 96 97 96 88 73 63 59
21 23 25 24 23 22 27 31 43 70 65 57 85 95 96 98 97 97 96 96 96 96 96 97 97 96 95 76 64 62 58 53

GFSFLT2_500_rhum_108.txt.gz
RH
10 14 19 21 22 23 24 24 26 38 64 86 95 85 91 92 94 96 84 65 83 89 80 68 74 95 97 93 96 96 91 56
15 16 16 17 19 25 28 30 44 56 62 85 93 96 97 74 94 96 91 96 93 84 39 68 86 97 90 84 93 92 76 77
16 19 17 15 16 20 24 27 32 50 65 75 97 93 96 96 94 96 97 92 95 90 68 76 96 94 93 95 92 96 96 86
23 20 16 14 18 19 20 24 39 59 92 96 97 94 83 93 95 92 98 73 84 94 96 92 94 96 95 90 94 80 84 89
24 19 15 14 17 18 21 26 53 95 96 96 97 97 93 96 96 85 74 71 84 81 97 96 96 96 93 90 95 96 84 79
19 19 14 17 17 15 24 37 96 98 96 96 93 97 95 96 97 91 78 91 94 96 94 92 84 92 94 99 88 78 73 72
13 17 16 21 18 16 27 45 96 96 91 94 86 96 92 96 92 81 94 98 97 98 83 83 82 82 83 81 78 65 70 71
17 16 17 19 26 22 27 66 97 96 89 94 88 99 95 97 91 77 54 71 90 97 84 90 74 80 85 76 65 75 83 77
15 16 16 20 32 25 32 72 95 98 96 91 95 98 96 97 97 57 48 57 77 85 82 74 74 92 85 70 72 76 86 77
14 17 15 22 27 27 44 54 89 94 96 85 92 96 97 96 90 63 59 59 68 76 82 80 83 95 86 71 72 75 87 75
16 17 13 26 21 27 41 61 67 96 90 95 97 97 97 98 95 64 57 55 70 89 94 97 94 95 81 79 80 92 84 75
16 17 13 26 17 22 22 28 48 90 97 96 97 97 96 93 52 42 53 73 88 90 92 94 97 94 84 90 94 96 86 86
17 14 12 26 23 16 19 21 28 43 76 95 97 97 96 90 65 58 62 73 98 100 95 96 97 88 94 95 97 97 96 91
17 13 12 22 39 19 17 20 27 25 34 55 93 97 97 94 81 81 66 70 70 91 100 99 91 95 96 95 95 98 97 97
18 13 13 19 36 48 26 25 33 42 34 43 53 80 87 99 97 92 94 95 96 90 90 96 99 95 96 99 95 98 95 100
18 15 15 16 26 35 50 42 26 38 51 69 70 76 59 64 86 87 94 98 97 97 97 95 86 91 96 98 96 97 92 97
19 16 18 19 18 22 37 46 41 36 55 79 100 98 97 76 80 92 96 88 99 97 95 96 89 87 96 98 95 98 99 96
19 16 21 21 18 19 34 38 46 47 65 69 98 98 97 97 93 100 100 99 100 99 94 90 98 93 97 98 97 96 99 96
18 16 21 22 20 20 22 36 35 59 77 66 82 99 96 98 97 98 98 98 98 97 96 97 97 98 97 98 97 98 96 95
21 17 22 24 23 24 25 28 34 65 86 67 96 98 97 97 96 96 97 97 96 97 97 97 97 97 98 97 97 97 99 87

GFSFLT2_500_rhum_111.txt.gz
RH
10 7 8 12 15 16 18 21 22 20 34 42 91 99 97 95 47 74 92 75 55 68 88 98 94 52 25 26 43 54 56 86
16 9 8 13 14 15 17 19 19 33 39 79 88 94 96 96 97 96 91 97 81 76 92 95 74 54 16 67 86 75 96 92
18 10 8 12 15 14 16 18 18 25 36 55 76 86 95 98 93 95 87 87 92 93 95 96 68 75 47 60 95 94 77 76
18 12 10 12 15 14 15 18 17 25 36 57 81 93 96 96 97 96 88 79 89 99 100 74 82 60 95 96 96 93 92 96
19 14 12 14 14 17 21 21 20 26 52 78 98 99 97 99 95 91 100 90 83 97 96 74 82 79 95 93 88 86 67 96
21 14 13 16 16 21 21 29 28 29 34 93 93 95 96 100 98 98 97 92 79 98 96 98 98 92 93 98 94 89 95 88
26 15 13 16 16 18 22 36 31 34 91 95 89 86 91 97 90 77 91 84 74 95 98 97 96 96 91 90 91 82 87 76
27 17 13 16 15 15 26 29 35 52 97 96 93 88 94 97 94 77 90 84 73 86 92 100 100 93 82 85 91 85 82 86
30 20 14 15 14 15 26 26 38 75 98 99 95 93 94 96 100 97 87 76 68 77 91 87 97 86 89 86 78 76 76 78
38 20 14 15 14 16 22 28 60 84 97 95 92 84 98 96 97 96 86 66 67 86 96 98 96 91 90 83 89 80 81 71
37 20 16 17 14 16 19 25 52 66 96 100 92 96 95 90 99 97 86 65 54 68 85 90 85 95 96 92 88 87 80 69
37 19 17 15 12 18 21 21 31 53 96 97 98 97 98 95 95 90 79 52 48 53 63 81 90 95 96 96 86 83 77 63
42 20 17 13 12 21 33 18 26 38 89 98 97 97 97 96 96 90 77 65 60 65 83 95 88 93 96 96 92 91 84 86
42 23 18 14 12 23 44 24 27 28 33 91 95 96 97 97 97 95 90 68 49 65 86 100 88 96 97 94 92 92 93 97
54 26 18 14 14 17 35 53 23 29 36 34 94 97 96 96 96 81 47 53 64 78 92 97 98 94 100 98 98 95 95 96
65 30 19 15 17 16 20 38 49 32 35 39 33 88 97 97 96 93 91 77 67 73 87 100 96 91 90 92 95 99 95 97
66 29 19 16 18 17 16 29 37 46 36 36 65 51 87 97 91 90 87 78 76 89 90 97 86 88 90 95 96 97 97 96
65 27 18 17 20 19 16 20 38 32 52 48 53 65 80 88 100 90 95 96 96 96 95 98 94 98 96 96 96 97 96 98
48 25 18 18 21 21 18 21 23 34 41 60 73 76 94 94 98 97 91 97 97 97 96 96 98 98 97 95 94 94 96 99
30 29 17 18 23 24 22 22 22 34 49 64 79 87 94 97 96 97 98 85 97 96 98 98 97 97 97 97 97 98 98 97

GFSFLT2_500_rhum_114.txt.gz
RH
11 8 11 10 8 8 10 12 12 11 11 14 32 68 76 90 91 97 84 66 90 64 75 68 98 68 57 15 25 9 15 26
14 12 13 12 9 10 12 14 14 13 12 18 28 58 92 96 96 96 67 96 95 57 47 96 90 76 76 49 20 28 34 35
16 16 14 14 10 11 14 15 14 14 16 17 22 41 59 80 97 98 91 96 98 71 46 98 88 88 71 37 17 20 40 71
22 18 18 14 10 10 14 16 17 20 27 19 21 50 58 70 87 96 96 98 99 94 49 81 93 64 54 47 37 55 73 91
33 18 22 15 11 11 16 17 16 22 33 26 23 60 76 85 82 94 95 96 99 94 66 89 51 48 86 57 92 74 96 97
37 26 26 17 13 14 16 17 16 22 34 28 43 72 95 100 97 96 94 92 98 96 96 87 85 92 85 74 94 94 80 89
43 33 29 23 15 17 17 17 20 26 28 33 45 94 97 100 97 98 99 95 81 97 93 90 80 76 84 96 98 95 87 100
53 39 31 27 15 17 18 17 22 23 27 37 60 95 97 96 97 98 89 96 98 97 92 92 93 93 95 96 97 90 98 88
58 40 32 31 17 16 18 15 23 20 33 62 81 97 98 100 98 89 94 96 94 96 73 82 84 89 92 95 87 87 94 81
62 41 36 31 18 17 15 21 28 19 41 58 77 97 98 96 96 89 83 89 94 94 83 82 82 88 94 97 86 86 85 82
60 42 32 29 18 17 13 24 36 17 24 45 73 93 95 97 95 93 98 82 90 100 97 94 81 86 91 92 83 82 90 86
58 40 29 27 19 16 14 24 37 15 20 32 81 100 95 96 92 99 94 83 87 84 95 100 88 84 84 92 77 78 80 81
65 46 27 22 19 15 16 26 43 18 24 44 72 97 97 96 96 96 93 78 79 78 100 100 94 86 74 80 91 90 84 84
71 52 35 20 20 14 16 21 34 38 21 35 62 94 97 96 96 95 92 89 81 66 90 91 90 94 87 93 95 97 97 97
89 48 38 22 20 15 16 18 24 44 28 42 46 97 97 96 96 98 95 92 92 61 62 75 95 99 100 93 96 97 97 96
78 41 35 23 20 16 18 19 18 33 45 47 47 76 96 97 97 96 93 94 84 86 81 78 82 90 98 95 96 98 93 98
69 38 34 26 20 17 21 20 17 23 37 42 51 49 93 97 97 97 96 95 81 65 64 71 87 87 96 96 100 100 96 96
78 52 43 32 23 19 23 19 20 20 35 33 51 45 56 93 97 96 96 92 61 69 76 69 81 87 94 95 94 97 100 96
80 65 51 41 22 22 24 22 22 20 25 33 34 59 50 69 87 96 97 96 96 90 83 85 95 99 99 97 97 94 96 96
76 64 57 26 22 24 26 26 25 18 24 31 47 64 68 70 87 95 98 96 96 97 96 96 97 96 96 98 98 96 97 96